Flinterbothnia — PBLG — position and weather

sailwx.info

Track history (hours):
 
Tides and Currents Weather Stations Pressure Air Temp Water Temp Dewpoint Dewpoint Depression Visibility Wind Speed Wind Dir Waves Ship Positions

Flinterbothnia

Last reported at 2014-Oct-31 13:04 UTC. Time now 2014-Nov-01 07:34 UTC.
Position N 59°58' E 027°00'.

Length 82 m; draft 4.5 m.

Type: Cargo ship. MMSI: 244741000.

Date/timePositionNaut miles runAvg speedWind from/ knotsBaromVisibWave heightAir tempDewpointWater temp
2014-Oct-31 13:04N 59°58' E 027°00'610.5
2014-Oct-31 12:28N 59°59' E 026°48'1010.1
2014-Oct-31 11:31N 59°58' E 026°29'53 3.2
2014-Oct-30 19:08N 59°32' E 024°57'7 9.5
2014-Oct-30 18:25N 59°37' E 024°49'9 9.9
2014-Oct-30 17:29N 59°42' E 024°32'2010.2
2014-Oct-30 15:33N 59°40' E 023°53'1010.3
2014-Oct-30 14:33N 59°39' E 023°33'1110.6
2014-Oct-30 13:32N 59°38' E 023°11'5210.4
2014-Oct-30 08:34N 59°35' E 021°30'178 9.3
2014-Oct-29 13:30N 57°21' E 017°45'9 9.8
2014-Oct-29 12:33N 57°12' E 017°39'44 9.9
2014-Oct-29 08:09N 56°32' E 017°09'711.4
2014-Oct-29 07:33N 56°26' E 017°04'1510.0
2014-Oct-29 06:06N 56°12' E 016°54'67 9.6
2014-Oct-28 23:09N 55°35' E 015°16'6 9.8
2014-Oct-28 22:33N 55°32' E 015°07'10 9.8
2014-Oct-28 21:33N 55°27' E 014°52'10 9.8
2014-Oct-28 20:33N 55°22' E 014°38'1111.1
2014-Oct-28 19:34N 55°13' E 014°26'1010.0
2014-Oct-28 18:34N 55°05' E 014°15'10 9.8
2014-Oct-28 17:31N 54°59' E 014°01'10 9.8
2014-Oct-28 16:32N 54°55' E 013°46'10 9.9
2014-Oct-28 15:33N 54°51' E 013°30'1010.0
2014-Oct-28 14:33N 54°47' E 013°14'1110.1
2014-Oct-28 13:30N 54°43' E 012°57'1010.2
2014-Oct-28 12:33N 54°39' E 012°42'1010.3
2014-Oct-28 11:32N 54°34' E 012°26'1010.1
2014-Oct-28 10:33N 54°27' E 012°14'10 9.8
2014-Oct-28 09:33N 54°25' E 011°58'1110.6
2014-Oct-28 08:32N 54°27' E 011°39'1310.4
2014-Oct-28 07:18N 54°32' E 011°19'810.1
2014-Oct-28 06:29N 54°34' E 011°05'1010.4
2014-Oct-28 05:32N 54°32' E 010°49'1010.0
2014-Oct-28 04:34N 54°30' E 010°32'9 9.5
2014-Oct-28 03:33N 54°27' E 010°17'7 7.1
2014-Oct-28 02:33N 54°22' E 010°08'1 1.2
2014-Oct-28 01:34N 54°22' E 010°06'7 7.3
2014-Oct-28 00:33N 54°21' E 009°54'5 4.8
2014-Oct-27 23:34N 54°21' E 009°46'8 8.1
2014-Oct-27 22:31N 54°14' E 009°37'8 7.9
2014-Oct-27 21:30N 54°10' E 009°25'7 6.8
2014-Oct-27 20:33N 54°05' E 009°19'9 8.7
2014-Oct-27 19:34N 53°57' E 009°14'4 4.4
2014-Oct-27 18:34N 53°53' E 009°08'7 7.0
2014-Oct-27 17:34N 53°51' E 008°57'9 8.6
2014-Oct-27 16:34N 53°52' E 008°43'9 8.9
2014-Oct-27 15:34N 53°58' E 008°32'1010.0
2014-Oct-27 14:34N 53°59' E 008°15'1110.7
2014-Oct-27 13:33N 53°57' E 007°57'6811.3
2014-Oct-27 07:33N 53°41' E 006°05'1111.3
2014-Oct-27 06:34N 53°37' E 005°47'1010.3
2014-Oct-27 05:34N 53°34' E 005°31'10 9.6
2014-Oct-27 04:33N 53°31' E 005°15'9 9.1
2014-Oct-27 03:34N 53°28' E 005°01'9 8.8
2014-Oct-27 02:30N 53°24' E 004°47'27 8.8
2014-Oct-26 23:23N 53°00' E 004°24'7 8.7
2014-Oct-26 22:33N 52°54' E 004°18'9 8.6
2014-Oct-26 21:33N 52°46' E 004°12'9 8.7
2014-Oct-26 20:34N 52°39' E 004°04'10 9.3
2014-Oct-26 19:29N 52°31' E 003°54'1010.0
2014-Oct-26 18:31N 52°23' E 003°45'1010.4
2014-Oct-26 17:33N 52°15' E 003°36'1510.8
2014-Oct-26 16:12N 52°02' E 003°24'2210.7
2014-Oct-26 14:09N 51°40' E 003°20'6 9.7
2014-Oct-26 13:33N 51°35' E 003°24'9 9.1
2014-Oct-26 12:34N 51°27' E 003°32'8 7.9
2014-Oct-26 11:33N 51°24' E 003°43'6 5.5
2014-Oct-26 10:34N 51°20' E 003°49'1 1.1
2014-Oct-26 09:34N 51°19' E 003°50'6 5.7
2014-Oct-26 08:34N 51°13' E 003°48'3 2.5
2014-Oct-26 07:34N 51°11' E 003°48'0 0.0
2014-Oct-26 06:33N 51°11' E 003°48'0 0.0
2014-Oct-26 05:33N 51°11' E 003°48'0 0.0
2014-Oct-26 04:33N 51°11' E 003°48'0 0.0
2014-Oct-26 03:33N 51°11' E 003°48'0 0.0
2014-Oct-26 02:33N 51°11' E 003°48'0 0.0
2014-Oct-26 01:34N 51°11' E 003°48'0 0.0
2014-Oct-26 00:34N 51°11' E 003°48'0 0.0
2014-Oct-25 23:33N 51°11' E 003°48'0 0.0
2014-Oct-25 22:34N 51°11' E 003°48'0 0.0
2014-Oct-25 21:33N 51°11' E 003°48'0 0.0
2014-Oct-25 20:34N 51°11' E 003°48'0 0.0
2014-Oct-25 19:33N 51°11' E 003°48'0 0.0
2014-Oct-25 18:33N 51°11' E 003°48'0 0.0
2014-Oct-25 17:33N 51°11' E 003°48'0 0.0
2014-Oct-25 16:34N 51°11' E 003°48'0 0.0
2014-Oct-25 15:33N 51°11' E 003°48'0 0.0
2014-Oct-25 14:33N 51°11' E 003°48'0 0.0
2014-Oct-25 13:34N 51°11' E 003°48'0 0.0
2014-Oct-25 12:33N 51°11' E 003°48'0 0.0
2014-Oct-25 11:33N 51°11' E 003°48'0 0.0
2014-Oct-25 10:34N 51°11' E 003°48'0 0.0
2014-Oct-25 09:33N 51°11' E 003°48'0 0.0
2014-Oct-25 08:33N 51°11' E 003°48'0 0.0
2014-Oct-25 07:33N 51°11' E 003°48'0 0.0
2014-Oct-25 06:34N 51°11' E 003°48'0 0.0
2014-Oct-25 05:33N 51°11' E 003°48'0 0.0
2014-Oct-25 04:33N 51°11' E 003°48'0 0.0
2014-Oct-25 03:33N 51°11' E 003°48'0 0.0
2014-Oct-25 02:33N 51°11' E 003°48'0 0.0
2014-Oct-25 01:33N 51°11' E 003°48'0 0.0
2014-Oct-25 00:33N 51°11' E 003°48'0 0.0
2014-Oct-24 23:34N 51°11' E 003°48'0 0.0
2014-Oct-24 22:34N 51°11' E 003°48'0 0.0
2014-Oct-24 21:34N 51°11' E 003°48'0 0.0
2014-Oct-24 20:34N 51°11' E 003°48'0 0.0
2014-Oct-24 19:33N 51°11' E 003°48'0 0.0
2014-Oct-24 18:33N 51°11' E 003°48'0 0.0
2014-Oct-24 17:34N 51°11' E 003°48'0 0.0
2014-Oct-24 16:34N 51°11' E 003°48'0 0.0
2014-Oct-24 15:33N 51°11' E 003°48'0 0.0
2014-Oct-24 14:33N 51°11' E 003°48'0 0.0
2014-Oct-24 13:34N 51°11' E 003°48'0 0.0
2014-Oct-24 12:33N 51°11' E 003°48'0 0.0
2014-Oct-24 11:33N 51°11' E 003°48'0 0.0
2014-Oct-24 10:34N 51°11' E 003°48'0 0.0
2014-Oct-24 09:34N 51°11' E 003°48'0 0.0
2014-Oct-24 08:33N 51°11' E 003°48'0 0.0
2014-Oct-24 07:34N 51°11' E 003°48'0 0.0
2014-Oct-24 06:33N 51°11' E 003°48'0 0.0
2014-Oct-24 05:34N 51°11' E 003°48'0 0.0
2014-Oct-24 04:33N 51°11' E 003°48'0 0.0
2014-Oct-24 03:33N 51°11' E 003°48'0 0.0
2014-Oct-24 02:33N 51°11' E 003°48'0 0.0
2014-Oct-24 01:33N 51°11' E 003°48'4 3.7
2014-Oct-24 00:33N 51°14' E 003°49'6 5.8
2014-Oct-23 23:33N 51°20' E 003°49'6 6.1
2014-Oct-23 22:34N 51°24' E 003°57'5 4.8
2014-Oct-23 21:34N 51°28' E 004°00'4 4.0
2014-Oct-23 20:34N 51°32' E 003°60'9 8.5
2014-Oct-23 19:33N 51°39' E 004°06'2 2.4
2014-Oct-23 18:33N 51°40' E 004°10'6 5.9
2014-Oct-23 17:33N 51°40' E 004°20'4 3.8
2014-Oct-23 16:33N 51°42' E 004°25'7 6.6
2014-Oct-23 15:33N 51°41' E 004°36'0 0.2
2014-Oct-23 14:31N 51°41' E 004°36'0 0.0
2014-Oct-23 13:31N 51°41' E 004°36'0 0.0
2014-Oct-23 12:31N 51°41' E 004°36'0 0.0
2014-Oct-23 11:28N 51°41' E 004°36'0 0.0
2014-Oct-23 10:25N 51°41' E 004°36'0 0.0
2014-Oct-23 09:10N 51°41' E 004°36'0 0.0
2014-Oct-23 08:21N 51°41' E 004°36'0 0.0
2014-Oct-23 07:33N 51°41' E 004°36'0 0.0
2014-Oct-23 06:34N 51°41' E 004°36'0 0.0
2014-Oct-23 05:33N 51°41' E 004°36'0 0.0
2014-Oct-23 04:33N 51°41' E 004°36'0 0.0
2014-Oct-23 03:33N 51°41' E 004°36'0 0.0
2014-Oct-23 02:33N 51°41' E 004°36'0 0.0
2014-Oct-23 01:33N 51°41' E 004°36'0 0.0
2014-Oct-23 00:33N 51°41' E 004°36'0 0.0
2014-Oct-22 23:34N 51°41' E 004°36'0 0.0
2014-Oct-22 22:32N 51°41' E 004°36'0 0.0
2014-Oct-22 21:34N 51°41' E 004°36'0 0.0
2014-Oct-22 20:34N 51°41' E 004°36'0 0.0
2014-Oct-22 19:33N 51°41' E 004°36'0 0.0
2014-Oct-22 18:33N 51°41' E 004°36'0 0.0
2014-Oct-22 17:30N 51°41' E 004°36'0 0.0
2014-Oct-22 16:33N 51°41' E 004°36'0 0.0
2014-Oct-22 15:33N 51°41' E 004°36'0 0.0
2014-Oct-22 14:33N 51°41' E 004°36'0 0.0
2014-Oct-22 13:30N 51°41' E 004°36'0 0.0
2014-Oct-22 12:33N 51°41' E 004°36'0 0.0
2014-Oct-22 11:33N 51°41' E 004°36'0 0.0
2014-Oct-22 10:32N 51°41' E 004°36'0 0.0
2014-Oct-22 09:33N 51°41' E 004°36'2 2.4
2014-Oct-22 08:33N 51°44' E 004°38'7 6.9
2014-Oct-22 07:33N 51°50' E 004°33'8 8.2
2014-Oct-22 06:33N 51°52' E 004°20'7 7.1
2014-Oct-22 05:33N 51°56' E 004°12'9 8.7
2014-Oct-22 04:33N 52°00' E 003°59'9 8.5
2014-Oct-22 03:33N 52°06' E 003°48'8 7.7
2014-Oct-22 02:32N 52°13' E 003°43'0 0.4
2014-Oct-22 01:32N 52°13' E 003°43'1 0.9
2014-Oct-22 00:31N 52°12' E 003°44'0 0.3
2014-Oct-21 23:32N 52°12' E 003°43'0 0.2
2014-Oct-21 22:27N 52°12' E 003°44'3 3.0
2014-Oct-21 21:32N 52°14' E 003°47'7 6.9
2014-Oct-21 20:33N 52°20' E 003°48'7 7.1
2014-Oct-21 19:31N 52°28' E 003°50'10 7.2
2014-Oct-21 18:08N 52°38' E 003°53'4 7.2
2014-Oct-21 17:33N 52°42' E 003°55'7 7.0
2014-Oct-21 16:33N 52°48' E 003°57'  
Track history (hours):
 
Tides and Currents Weather Stations Pressure Air Temp Water Temp Dewpoint Dewpoint Depression Visibility Wind Speed Wind Dir Waves Ship Positions

Flinterbothnia

Last reported at 2014-Oct-31 13:04 UTC. Time now 2014-Nov-01 07:34 UTC.
Position N 59°58' E 027°00'.

Length 82 m; draft 4.5 m.

Type: Cargo ship. MMSI: 244741000.

Date/timePositionNaut miles runAvg speedWind from/ knotsBaromVisibWave heightAir tempDewpointWater temp
2014-Oct-31 13:04N 59°58' E 027°00'610.5
2014-Oct-31 12:28N 59°59' E 026°48'1010.1
2014-Oct-31 11:31N 59°58' E 026°29'53 3.2
2014-Oct-30 19:08N 59°32' E 024°57'7 9.5
2014-Oct-30 18:25N 59°37' E 024°49'9 9.9
2014-Oct-30 17:29N 59°42' E 024°32'2010.2
2014-Oct-30 15:33N 59°40' E 023°53'1010.3
2014-Oct-30 14:33N 59°39' E 023°33'1110.6
2014-Oct-30 13:32N 59°38' E 023°11'5210.4
2014-Oct-30 08:34N 59°35' E 021°30'178 9.3
2014-Oct-29 13:30N 57°21' E 017°45'9 9.8
2014-Oct-29 12:33N 57°12' E 017°39'44 9.9
2014-Oct-29 08:09N 56°32' E 017°09'711.4
2014-Oct-29 07:33N 56°26' E 017°04'1510.0
2014-Oct-29 06:06N 56°12' E 016°54'67 9.6
2014-Oct-28 23:09N 55°35' E 015°16'6 9.8
2014-Oct-28 22:33N 55°32' E 015°07'10 9.8
2014-Oct-28 21:33N 55°27' E 014°52'10 9.8
2014-Oct-28 20:33N 55°22' E 014°38'1111.1
2014-Oct-28 19:34N 55°13' E 014°26'1010.0
2014-Oct-28 18:34N 55°05' E 014°15'10 9.8
2014-Oct-28 17:31N 54°59' E 014°01'10 9.8
2014-Oct-28 16:32N 54°55' E 013°46'10 9.9
2014-Oct-28 15:33N 54°51' E 013°30'1010.0
2014-Oct-28 14:33N 54°47' E 013°14'1110.1
2014-Oct-28 13:30N 54°43' E 012°57'1010.2
2014-Oct-28 12:33N 54°39' E 012°42'1010.3
2014-Oct-28 11:32N 54°34' E 012°26'1010.1
2014-Oct-28 10:33N 54°27' E 012°14'10 9.8
2014-Oct-28 09:33N 54°25' E 011°58'1110.6
2014-Oct-28 08:32N 54°27' E 011°39'1310.4
2014-Oct-28 07:18N 54°32' E 011°19'810.1
2014-Oct-28 06:29N 54°34' E 011°05'1010.4
2014-Oct-28 05:32N 54°32' E 010°49'1010.0
2014-Oct-28 04:34N 54°30' E 010°32'9 9.5
2014-Oct-28 03:33N 54°27' E 010°17'7 7.1
2014-Oct-28 02:33N 54°22' E 010°08'1 1.2
2014-Oct-28 01:34N 54°22' E 010°06'7 7.3
2014-Oct-28 00:33N 54°21' E 009°54'5 4.8
2014-Oct-27 23:34N 54°21' E 009°46'8 8.1
2014-Oct-27 22:31N 54°14' E 009°37'8 7.9
2014-Oct-27 21:30N 54°10' E 009°25'7 6.8
2014-Oct-27 20:33N 54°05' E 009°19'9 8.7
2014-Oct-27 19:34N 53°57' E 009°14'4 4.4
2014-Oct-27 18:34N 53°53' E 009°08'7 7.0
2014-Oct-27 17:34N 53°51' E 008°57'9 8.6
2014-Oct-27 16:34N 53°52' E 008°43'9 8.9
2014-Oct-27 15:34N 53°58' E 008°32'1010.0
2014-Oct-27 14:34N 53°59' E 008°15'1110.7
2014-Oct-27 13:33N 53°57' E 007°57'6811.3
2014-Oct-27 07:33N 53°41' E 006°05'1111.3
2014-Oct-27 06:34N 53°37' E 005°47'1010.3
2014-Oct-27 05:34N 53°34' E 005°31'10 9.6
2014-Oct-27 04:33N 53°31' E 005°15'9 9.1
2014-Oct-27 03:34N 53°28' E 005°01'9 8.8
2014-Oct-27 02:30N 53°24' E 004°47'27 8.8
2014-Oct-26 23:23N 53°00' E 004°24'7 8.7
2014-Oct-26 22:33N 52°54' E 004°18'9 8.6
2014-Oct-26 21:33N 52°46' E 004°12'9 8.7
2014-Oct-26 20:34N 52°39' E 004°04'10 9.3
2014-Oct-26 19:29N 52°31' E 003°54'1010.0
2014-Oct-26 18:31N 52°23' E 003°45'1010.4
2014-Oct-26 17:33N 52°15' E 003°36'1510.8
2014-Oct-26 16:12N 52°02' E 003°24'2210.7
2014-Oct-26 14:09N 51°40' E 003°20'6 9.7
2014-Oct-26 13:33N 51°35' E 003°24'9 9.1
2014-Oct-26 12:34N 51°27' E 003°32'8 7.9
2014-Oct-26 11:33N 51°24' E 003°43'6 5.5
2014-Oct-26 10:34N 51°20' E 003°49'1 1.1
2014-Oct-26 09:34N 51°19' E 003°50'6 5.7
2014-Oct-26 08:34N 51°13' E 003°48'3 2.5
2014-Oct-26 07:34N 51°11' E 003°48'0 0.0
2014-Oct-26 06:33N 51°11' E 003°48'0 0.0
2014-Oct-26 05:33N 51°11' E 003°48'0 0.0
2014-Oct-26 04:33N 51°11' E 003°48'0 0.0
2014-Oct-26 03:33N 51°11' E 003°48'0 0.0
2014-Oct-26 02:33N 51°11' E 003°48'0 0.0
2014-Oct-26 01:34N 51°11' E 003°48'0 0.0
2014-Oct-26 00:34N 51°11' E 003°48'0 0.0
2014-Oct-25 23:33N 51°11' E 003°48'0 0.0
2014-Oct-25 22:34N 51°11' E 003°48'0 0.0
2014-Oct-25 21:33N 51°11' E 003°48'0 0.0
2014-Oct-25 20:34N 51°11' E 003°48'0 0.0
2014-Oct-25 19:33N 51°11' E 003°48'0 0.0
2014-Oct-25 18:33N 51°11' E 003°48'0 0.0
2014-Oct-25 17:33N 51°11' E 003°48'0 0.0
2014-Oct-25 16:34N 51°11' E 003°48'0 0.0
2014-Oct-25 15:33N 51°11' E 003°48'0 0.0
2014-Oct-25 14:33N 51°11' E 003°48'0 0.0
2014-Oct-25 13:34N 51°11' E 003°48'0 0.0
2014-Oct-25 12:33N 51°11' E 003°48'0 0.0
2014-Oct-25 11:33N 51°11' E 003°48'0 0.0
2014-Oct-25 10:34N 51°11' E 003°48'0 0.0
2014-Oct-25 09:33N 51°11' E 003°48'0 0.0
2014-Oct-25 08:33N 51°11' E 003°48'0 0.0
2014-Oct-25 07:33N 51°11' E 003°48'0 0.0
2014-Oct-25 06:34N 51°11' E 003°48'0 0.0
2014-Oct-25 05:33N 51°11' E 003°48'0 0.0
2014-Oct-25 04:33N 51°11' E 003°48'0 0.0
2014-Oct-25 03:33N 51°11' E 003°48'0 0.0
2014-Oct-25 02:33N 51°11' E 003°48'0 0.0
2014-Oct-25 01:33N 51°11' E 003°48'0 0.0
2014-Oct-25 00:33N 51°11' E 003°48'0 0.0
2014-Oct-24 23:34N 51°11' E 003°48'0 0.0
2014-Oct-24 22:34N 51°11' E 003°48'0 0.0
2014-Oct-24 21:34N 51°11' E 003°48'0 0.0
2014-Oct-24 20:34N 51°11' E 003°48'0 0.0
2014-Oct-24 19:33N 51°11' E 003°48'0 0.0
2014-Oct-24 18:33N 51°11' E 003°48'0 0.0
2014-Oct-24 17:34N 51°11' E 003°48'0 0.0
2014-Oct-24 16:34N 51°11' E 003°48'0 0.0
2014-Oct-24 15:33N 51°11' E 003°48'0 0.0
2014-Oct-24 14:33N 51°11' E 003°48'0 0.0
2014-Oct-24 13:34N 51°11' E 003°48'0 0.0
2014-Oct-24 12:33N 51°11' E 003°48'0 0.0
2014-Oct-24 11:33N 51°11' E 003°48'0 0.0
2014-Oct-24 10:34N 51°11' E 003°48'0 0.0
2014-Oct-24 09:34N 51°11' E 003°48'0 0.0
2014-Oct-24 08:33N 51°11' E 003°48'0 0.0
2014-Oct-24 07:34N 51°11' E 003°48'0 0.0
2014-Oct-24 06:33N 51°11' E 003°48'0 0.0
2014-Oct-24 05:34N 51°11' E 003°48'0 0.0
2014-Oct-24 04:33N 51°11' E 003°48'0 0.0
2014-Oct-24 03:33N 51°11' E 003°48'0 0.0
2014-Oct-24 02:33N 51°11' E 003°48'0 0.0
2014-Oct-24 01:33N 51°11' E 003°48'4 3.7
2014-Oct-24 00:33N 51°14' E 003°49'6 5.8
2014-Oct-23 23:33N 51°20' E 003°49'6 6.1
2014-Oct-23 22:34N 51°24' E 003°57'5 4.8
2014-Oct-23 21:34N 51°28' E 004°00'4 4.0
2014-Oct-23 20:34N 51°32' E 003°60'9 8.5
2014-Oct-23 19:33N 51°39' E 004°06'2 2.4
2014-Oct-23 18:33N 51°40' E 004°10'6 5.9
2014-Oct-23 17:33N 51°40' E 004°20'4 3.8
2014-Oct-23 16:33N 51°42' E 004°25'7 6.6
2014-Oct-23 15:33N 51°41' E 004°36'0 0.2
2014-Oct-23 14:31N 51°41' E 004°36'0 0.0
2014-Oct-23 13:31N 51°41' E 004°36'0 0.0
2014-Oct-23 12:31N 51°41' E 004°36'0 0.0
2014-Oct-23 11:28N 51°41' E 004°36'0 0.0
2014-Oct-23 10:25N 51°41' E 004°36'0 0.0
2014-Oct-23 09:10N 51°41' E 004°36'0 0.0
2014-Oct-23 08:21N 51°41' E 004°36'0 0.0
2014-Oct-23 07:33N 51°41' E 004°36'0 0.0
2014-Oct-23 06:34N 51°41' E 004°36'0 0.0
2014-Oct-23 05:33N 51°41' E 004°36'0 0.0
2014-Oct-23 04:33N 51°41' E 004°36'0 0.0
2014-Oct-23 03:33N 51°41' E 004°36'0 0.0
2014-Oct-23 02:33N 51°41' E 004°36'0 0.0
2014-Oct-23 01:33N 51°41' E 004°36'0 0.0
2014-Oct-23 00:33N 51°41' E 004°36'0 0.0
2014-Oct-22 23:34N 51°41' E 004°36'0 0.0
2014-Oct-22 22:32N 51°41' E 004°36'0 0.0
2014-Oct-22 21:34N 51°41' E 004°36'0 0.0
2014-Oct-22 20:34N 51°41' E 004°36'0 0.0
2014-Oct-22 19:33N 51°41' E 004°36'0 0.0
2014-Oct-22 18:33N 51°41' E 004°36'0 0.0
2014-Oct-22 17:30N 51°41' E 004°36'0 0.0
2014-Oct-22 16:33N 51°41' E 004°36'0 0.0
2014-Oct-22 15:33N 51°41' E 004°36'0 0.0
2014-Oct-22 14:33N 51°41' E 004°36'0 0.0
2014-Oct-22 13:30N 51°41' E 004°36'0 0.0
2014-Oct-22 12:33N 51°41' E 004°36'0 0.0
2014-Oct-22 11:33N 51°41' E 004°36'0 0.0
2014-Oct-22 10:32N 51°41' E 004°36'0 0.0
2014-Oct-22 09:33N 51°41' E 004°36'2 2.4
2014-Oct-22 08:33N 51°44' E 004°38'7 6.9
2014-Oct-22 07:33N 51°50' E 004°33'8 8.2
2014-Oct-22 06:33N 51°52' E 004°20'7 7.1
2014-Oct-22 05:33N 51°56' E 004°12'9 8.7
2014-Oct-22 04:33N 52°00' E 003°59'9 8.5
2014-Oct-22 03:33N 52°06' E 003°48'8 7.7
2014-Oct-22 02:32N 52°13' E 003°43'0 0.4
2014-Oct-22 01:32N 52°13' E 003°43'1 0.9
2014-Oct-22 00:31N 52°12' E 003°44'0 0.3
2014-Oct-21 23:32N 52°12' E 003°43'0 0.2
2014-Oct-21 22:27N 52°12' E 003°44'3 3.0
2014-Oct-21 21:32N 52°14' E 003°47'7 6.9
2014-Oct-21 20:33N 52°20' E 003°48'7 7.1
2014-Oct-21 19:31N 52°28' E 003°50'10 7.2
2014-Oct-21 18:08N 52°38' E 003°53'4 7.2
2014-Oct-21 17:33N 52°42' E 003°55'7 7.0
2014-Oct-21 16:33N 52°48' E 003°57'  

Dump ship's entire track history